Вернуться в каталог

CONNECTA T1.2

АктивенСвязьSSO
NORAD 55012·PAYLOAD·🇹🇷 Turkey

Запущен Jan 3, 2023 с Cape Canaveral Space Force Station

Loading…

Ближайшие Пролёты (ближайшие 24 часа)

TLE

СвежийSource: Space-Track

Эпоха: Sep 14, 2026, 11:17 UTC

1 55012U 23001D   26257.47080583  .00039862  00000-0  53315-3 0  9994
2 55012  97.3157 330.1479 0005922 128.2921 231.8868 15.57913121206411

Отслеживайте CONNECTA T1.2 в реальном времени с AllMySat

Download on the App Store